• In Lithuania
  • List of Countries
  • For 7 days
  • Water Temperature
  • Satellite Maps
  • Weather Map
  • Weather Widgets
  • user-avatar
    Login

    Hourly Weather Bukoba

    Today, 23 November, Thursday

    Time Temperature Precipitation Wind Pressure Humidity
    00:00 +19°C° 0 mm 2 mps 660 mmHg 82%
    01:00 +18°C° 0 mm 2 mps 660 mmHg 83%
    02:00 +18°C° 0 mm 3 mps 660 mmHg 84%
    03:00 +18°C° 0.1 mm 2 mps 660 mmHg 84%
    04:00 +18°C° 0.1 mm 2 mps 660 mmHg 83%
    05:00 +19°C° 0.1 mm 1 mps 660 mmHg 83%
    06:00 +20°C° 0.7 mm 1 mps 661 mmHg 78%
    07:00 +21°C° 0.7 mm 2 mps 661 mmHg 74%
    08:00 +27°C° 0 mm 2 mps 662 mmHg 57%
    09:00 +29°C° 0.4 mm 2 mps 662 mmHg 51%
    10:00 +31°C° 0.4 mm 2 mps 663 mmHg 44%
    11:00 +34°C° 0.4 mm 1 mps 663 mmHg 37%
    12:00 +32°C° 0.1 mm 2 mps 662 mmHg 40%
    13:00 +31°C° 0.1 mm 2 mps 661 mmHg 43%
    14:00 +29°C° 0.1 mm 3 mps 661 mmHg 46%
    15:00 +29°C° 0 mm 3 mps 660 mmHg 47%
    16:00 +29°C° 0 mm 2 mps 660 mmHg 49%
    17:00 +28°C° 0 mm 2 mps 660 mmHg 51%
    18:00 +26°C° 0.2 mm 2 mps 660 mmHg 63%
    19:00 +23°C° 0.2 mm 2 mps 660 mmHg 75%
    20:00 +20°C° 0.2 mm 2 mps 661 mmHg 87%
    21:00 +20°C° 0 mm 1 mps 661 mmHg 88%
    22:00 +20°C° 0 mm 1 mps 661 mmHg 89%
    23:00 +20°C° 0 mm 1 mps 661 mmHg 90%

    Tomorrow, 24 November, Friday

    Time Temperature Precipitation Wind Pressure Humidity
    00:00 +19°C° 0.1 mm 1 mps 661 mmHg 91%
    01:00 +18°C° 0.1 mm 2 mps 660 mmHg 93%
    02:00 +18°C° 0.1 mm 2 mps 660 mmHg 94%
    03:00 +17°C° 0.2 mm 2 mps 660 mmHg 94%
    04:00 +17°C° 0.2 mm 2 mps 660 mmHg 94%
    05:00 +17°C° 0.2 mm 2 mps 660 mmHg 94%
    06:00 +19°C° 0.8 mm 2 mps 661 mmHg 88%
    07:00 +21°C° 0.8 mm 2 mps 662 mmHg 82%
    08:00 +24°C° 0.8 mm 1 mps 662 mmHg 76%
    09:00 +24°C° 1.3 mm 2 mps 662 mmHg 75%
    10:00 +25°C° 1.3 mm 2 mps 662 mmHg 73%
    11:00 +26°C° 1.3 mm 2 mps 662 mmHg 71%
    12:00 +25°C° 0.6 mm 2 mps 661 mmHg 73%
    13:00 +25°C° 0.6 mm 3 mps 661 mmHg 74%
    14:00 +24°C° 0.6 mm 3 mps 660 mmHg 75%
    15:00 +24°C° 0.1 mm 3 mps 660 mmHg 75%
    16:00 +24°C° 0.1 mm 2 mps 660 mmHg 74%
    17:00 +23°C° 0.1 mm 2 mps 659 mmHg 74%
    18:00 +23°C° 0 mm 2 mps 660 mmHg 76%
    19:00 +21°C° 0 mm 2 mps 660 mmHg 78%
    20:00 +20°C° 0 mm 2 mps 661 mmHg 80%
    21:00 +19°C° 0 mm 2 mps 661 mmHg 82%
    22:00 +19°C° 0 mm 2 mps 661 mmHg 84%
    23:00 +18°C° 0 mm 3 mps 661 mmHg 86%

    Day after tomorrow, 25 November, Saturday

    Time Temperature Precipitation Wind Pressure Humidity
    00:00 +18°C° 0.1 mm 3 mps 661 mmHg 86%
    01:00 +18°C° 0.1 mm 3 mps 660 mmHg 86%
    02:00 +18°C° 0.1 mm 3 mps 660 mmHg 86%
    03:00 +18°C° 0.2 mm 2 mps 660 mmHg 85%
    04:00 +20°C° 0.2 mm 1 mps 661 mmHg 84%
    05:00 +20°C° 0.2 mm 1 mps 661 mmHg 83%
    06:00 +20°C° 1 mm 1 mps 661 mmHg 84%
    07:00 +20°C° 1 mm 2 mps 662 mmHg 85%
    08:00 +20°C° 1 mm 2 mps 663 mmHg 85%
    09:00 +20°C° 1.8 mm 3 mps 663 mmHg 85%
    10:00 +20°C° 1.8 mm 4 mps 663 mmHg 85%
    11:00 +20°C° 1.8 mm 5 mps 663 mmHg 85%
    12:00 +20°C° 0.4 mm 5 mps 662 mmHg 84%
    13:00 +20°C° 0.4 mm 5 mps 661 mmHg 82%
    14:00 +21°C° 0.4 mm 5 mps 661 mmHg 81%
    15:00 +20°C° 0.1 mm 5 mps 660 mmHg 82%
    16:00 +20°C° 0.1 mm 4 mps 660 mmHg 82%
    17:00 +20°C° 0.1 mm 4 mps 660 mmHg 83%
    18:00 +19°C° 0 mm 4 mps 661 mmHg 85%
    19:00 +18°C° 0 mm 3 mps 661 mmHg 87%
    20:00 +17°C° 0 mm 3 mps 662 mmHg 89%
    21:00 +17°C° 0 mm 3 mps 662 mmHg 89%
    22:00 +17°C° 0 mm 3 mps 662 mmHg 90%
    23:00 +16°C° 0 mm 3 mps 662 mmHg 90%

    26 November, Sunday

    Time Temperature Precipitation Wind Pressure Humidity
    00:00 +16°C° 0.1 mm 3 mps 661 mmHg 90%
    01:00 +15°C° 0.1 mm 4 mps 661 mmHg 90%
    02:00 +15°C° 0.1 mm 4 mps 661 mmHg 90%
    03:00 +15°C° 0.4 mm 4 mps 661 mmHg 91%
    04:00 +15°C° 0.4 mm 4 mps 661 mmHg 92%
    05:00 +15°C° 0.4 mm 4 mps 662 mmHg 93%
    06:00 +17°C° 0.6 mm 4 mps 662 mmHg 89%
    07:00 +19°C° 0.6 mm 4 mps 663 mmHg 85%
    08:00 +20°C° 0.6 mm 4 mps 664 mmHg 82%
    09:00 +21°C° 0.4 mm 3 mps 664 mmHg 75%
    10:00 +24°C° 0.4 mm 3 mps 664 mmHg 69%
    11:00 +25°C° 0.4 mm 3 mps 664 mmHg 62%
    12:00 +26°C° 0.1 mm 2 mps 663 mmHg 62%
    13:00 +26°C° 0.1 mm 2 mps 662 mmHg 61%
    14:00 +27°C° 0.1 mm 2 mps 662 mmHg 60%
    15:00 +27°C° 0 mm 1 mps 662 mmHg 58%
    16:00 +27°C° 0 mm 1 mps 662 mmHg 56%
    17:00 +28°C° 0 mm 1 mps 662 mmHg 54%
    18:00 +25°C° 0 mm 1 mps 662 mmHg 62%
    19:00 +23°C° 0 mm 2 mps 662 mmHg 70%
    20:00 +19°C° 0 mm 2 mps 663 mmHg 78%
    21:00 +19°C° 0 mm 2 mps 663 mmHg 80%
    22:00 +18°C° 0 mm 2 mps 663 mmHg 82%
    23:00 +18°C° 0 mm 2 mps 663 mmHg 83%

    27 November, Monday

    Time Temperature Precipitation Wind Pressure Humidity
    00:00 +18°C° 0 mm 2 mps 662 mmHg 85%
    01:00 +17°C° 0 mm 2 mps 662 mmHg 86%
    02:00 +17°C° 0 mm 2 mps 661 mmHg 87%
    03:00 +17°C° 0.1 mm 2 mps 662 mmHg 89%
    04:00 +16°C° 0.1 mm 2 mps 662 mmHg 91%
    05:00 +16°C° 0.1 mm 1 mps 662 mmHg 93%
    06:00 +19°C° 0.1 mm 2 mps 663 mmHg 81%
    07:00 +23°C° 0.1 mm 2 mps 664 mmHg 69%
    08:00 +26°C° 0.1 mm 2 mps 665 mmHg 58%
    09:00 +29°C° 0 mm 1 mps 665 mmHg 51%
    10:00 +31°C° 0 mm 1 mps 664 mmHg 43%
    11:00 +33°C° 0 mm 1 mps 664 mmHg 36%
    12:00 +34°C° 0 mm 2 mps 663 mmHg 37%
    13:00 +32°C° 0 mm 2 mps 663 mmHg 39%
    14:00 +31°C° 0 mm 3 mps 662 mmHg 40%
    15:00 +30°C° 0 mm 3 mps 661 mmHg 44%
    16:00 +29°C° 0 mm 3 mps 661 mmHg 48%
    17:00 +28°C° 0 mm 3 mps 661 mmHg 52%
    18:00 +25°C° 0 mm 2 mps 661 mmHg 62%
    19:00 +23°C° 0 mm 1 mps 662 mmHg 72%
    20:00 +20°C° 0 mm 1 mps 662 mmHg 82%
    21:00 +20°C° 0 mm 1 mps 662 mmHg 83%
    22:00 +18°C° 0 mm 2 mps 662 mmHg 84%
    23:00 +18°C° 0 mm 2 mps 662 mmHg 85%

    28 November, Tuesday

    Time Temperature Precipitation Wind Pressure Humidity
    00:00 +18°C° 0 mm 2 mps 662 mmHg 87%
    01:00 +17°C° 0 mm 3 mps 661 mmHg 88%
    02:00 +17°C° 0 mm 3 mps 661 mmHg 89%
    03:00 +17°C° 0.1 mm 3 mps 661 mmHg 91%
    04:00 +17°C° 0.1 mm 2 mps 662 mmHg 93%
    05:00 +17°C° 0.1 mm 2 mps 662 mmHg 95%
    06:00 +20°C° 0.3 mm 2 mps 662 mmHg 83%
    07:00 +23°C° 0.3 mm 2 mps 663 mmHg 71%
    08:00 +26°C° 0.3 mm 2 mps 664 mmHg 59%
    09:00 +29°C° 0.3 mm 2 mps 664 mmHg 54%
    10:00 +31°C° 0.3 mm 1 mps 664 mmHg 49%
    11:00 +33°C° 0.3 mm 1 mps 664 mmHg 44%
    12:00 +32°C° 0.1 mm 2 mps 663 mmHg 44%
    13:00 +31°C° 0.1 mm 2 mps 662 mmHg 45%
    14:00 +30°C° 0.1 mm 2 mps 661 mmHg 45%
    15:00 +29°C° 0 mm 2 mps 661 mmHg 47%
    16:00 +29°C° 0 mm 2 mps 661 mmHg 49%
    17:00 +28°C° 0 mm 3 mps 661 mmHg 51%
    18:00 +26°C° 0.2 mm 2 mps 661 mmHg 63%
    19:00 +23°C° 0.2 mm 2 mps 661 mmHg 75%
    20:00 +20°C° 0.2 mm 2 mps 662 mmHg 87%
    21:00 +19°C° 0.3 mm 2 mps 662 mmHg 89%
    22:00 +20°C° 0.3 mm 1 mps 662 mmHg 91%
    23:00 +19°C° 0.3 mm 1 mps 662 mmHg 93%
    Show more